This is the latest recevied weather packets stored in our database for station/object N6SPP. If no packets are shown the sender has not sent any weather packets the latest 10 day(s).
| Time | Temp. | Humidity | Pressure | Rain* | Wind** | Luminosity | Snow |
|---|---|---|---|---|---|---|---|
| 1778090066 | 20.56° C | 62% | 1022.5 hPa | 0 mm | - | 672 W/m² | - |
| 1778089763 | 20.56° C | 61% | 1022.7 hPa | 0 mm | - | 658 W/m² | - |
| 1778089461 | 21.11° C | 60% | 1022.7 hPa | 0 mm | - | 648 W/m² | - |
| 1778089158 | 20° C | 63% | 1022.6 hPa | 0 mm | - | 640 W/m² | - |
| 1778088854 | 20.56° C | 63% | 1022.5 hPa | 0 mm | - | 598 W/m² | - |
| 1778088552 | 20° C | 63% | 1022.7 hPa | 0 mm | - | 618 W/m² | - |
| 1778088247 | 20° C | 62% | 1022.7 hPa | 0 mm | - | 606 W/m² | - |
| 1778087945 | 20° C | 64% | 1022.8 hPa | 0 mm | - | 597 W/m² | - |
| 1778087642 | 18.89° C | 65% | 1022.7 hPa | 0 mm | - | 588 W/m² | - |
| 1778087335 | 19.44° C | 64% | 1022.7 hPa | 0 mm | - | 563 W/m² | - |
| 1778087030 | 18.33° C | 66% | 1022.7 hPa | 0 mm | - | 601 W/m² | - |
| 1778086730 | 19.44° C | 65% | 1022.6 hPa | 0 mm | - | 506 W/m² | - |
| 1778086427 | 18.89° C | 67% | 1022.6 hPa | 0 mm | - | 567 W/m² | - |
| 1778086123 | 18.33° C | 67% | 1022.7 hPa | 0 mm | - | 551 W/m² | - |
| 1778085820 | 17.78° C | 67% | 1022.7 hPa | 0 mm | - | 464 W/m² | - |
| 1778085518 | 17.78° C | 68% | 1022.7 hPa | 0 mm | - | 363 W/m² | - |
| 1778085212 | 17.78° C | 68% | 1022.8 hPa | 0 mm | - | 347 W/m² | - |
| 1778084908 | 18.33° C | 67% | 1022.6 hPa | 0 mm | - | 341 W/m² | - |
| 1778084606 | 17.78° C | 68% | 1022.6 hPa | 0 mm | - | 350 W/m² | - |
| 1778084303 | 16.67° C | 71% | 1022.6 hPa | 0 mm | - | 282 W/m² | - |
| 1778084000 | 16.67° C | 70% | 1022.7 hPa | 0 mm | - | 279 W/m² | - |
| 1778083692 | 16.67° C | 72% | 1022.5 hPa | 0 mm | - | 258 W/m² | - |
| 1778083389 | 16.67° C | 73% | 1022.5 hPa | 0 mm | - | 288 W/m² | - |
| 1778083087 | 16.11° C | 74% | 1022.5 hPa | 0 mm | - | 286 W/m² | - |
| 1778082784 | 16.11° C | 74% | 1022.8 hPa | 0 mm | - | 243 W/m² | - |
* Rain latest hour (hover to see other rain measurements)
** Current wind speed in m/s (hover to see current wind gust speed)